| time (UTC) | temp F | wind direction | speed MPH | gust MPH | rain 1hr in | rain 24hr in | rain mn in | humidity % | barometer mb |
| 20260831101820 | 77 | 234 | 7.0 | 9.0 | 0.00 | 0.00 | 0.00 | 91 | 1017.2 |
| 20260831101314 | 77 | 203 | 6.0 | 8.0 | 0.00 | 0.00 | 0.00 | 90 | 1016.8 |
| 20260831100810 | 77 | 157 | 5.0 | 7.0 | 0.00 | 0.00 | 0.00 | 90 | 1016.9 |
| 20260831100306 | 77 | 219 | 7.0 | 8.0 | 0.00 | 0.00 | 0.00 | 90 | 1017.0 |
| 20260831095805 | 77 | 210 | 7.0 | 8.0 | 0.00 | 0.00 | 0.00 | 90 | 1017.0 |
| 20260831095300 | 77 | 223 | 8.0 | 9.0 | 0.00 | 0.00 | 0.00 | 90 | 1017.0 |
| 20260831094755 | 77 | 227 | 8.0 | 9.0 | 0.00 | 0.00 | 0.00 | 90 | 1016.8 |
| 20260831094250 | 77 | 231 | 6.0 | 8.0 | 0.00 | 0.00 | 0.00 | 90 | 1017.0 |
| 20260831093746 | 77 | 216 | 7.0 | 9.0 | 0.00 | 0.00 | 0.00 | 89 | 1016.9 |
| 20260831093240 | 77 | 221 | 7.0 | 8.0 | 0.00 | 0.00 | 0.00 | 89 | 1016.8 |
| 20260831092737 | 77 | 224 | 4.0 | 6.0 | 0.00 | 0.00 | 0.00 | 89 | 1016.9 |
| 20260831092233 | 77 | 216 | 8.0 | 9.0 | 0.00 | 0.00 | 0.00 | 89 | 1016.7 |
| 20260831091732 | 77 | 226 | 5.0 | 6.0 | 0.00 | 0.00 | 0.00 | 89 | 1016.8 |
| 20260831091228 | 77 | 234 | 6.0 | 7.0 | 0.00 | 0.00 | 0.00 | 89 | 1016.6 |
| 20260831090723 | 77 | 261 | 8.0 | 9.0 | 0.00 | 0.00 | 0.00 | 89 | 1016.6 |
| 20260831090220 | 77 | 210 | 10.0 | 11.0 | 0.00 | 0.00 | 0.00 | 89 | 1016.6 |
| 20260831085715 | 77 | 166 | 6.0 | 8.0 | 0.00 | 0.00 | 0.00 | 89 | 1016.6 |
| 20260831085210 | 77 | 214 | 7.0 | 9.0 | 0.00 | 0.00 | 0.00 | 88 | 1016.7 |
| 20260831084705 | 78 | 216 | 6.0 | 8.0 | 0.00 | 0.00 | 0.00 | 88 | 1016.5 |
| 20260831084201 | 78 | 192 | 7.0 | 8.0 | 0.00 | 0.00 | 0.00 | 87 | 1016.8 |
| 20260831083657 | 78 | 197 | 7.0 | 8.0 | 0.00 | 0.00 | 0.00 | 87 | 1016.9 |
| 20260831083153 | 78 | 219 | 9.0 | 10.0 | 0.00 | 0.00 | 0.00 | 87 | 1016.8 |
| 20260831082650 | 78 | 224 | 7.0 | 8.0 | 0.00 | 0.00 | 0.00 | 86 | 1016.7 |
| 20260831082146 | 78 | 206 | 5.0 | 6.0 | 0.00 | 0.00 | 0.00 | 85 | 1016.8 |
| 20260831081641 | 78 | 210 | 7.0 | 8.0 | 0.00 | 0.00 | 0.00 | 84 | 1016.9 |
| 20260831081137 | 78 | 223 | 8.0 | 10.0 | 0.00 | 0.00 | 0.00 | 84 | 1016.6 |
| 20260831080633 | 78 | 219 | 10.0 | 11.0 | 0.00 | 0.00 | 0.00 | 83 | 1016.9 |
| 20260831080128 | 78 | 221 | 9.0 | 9.0 | 0.00 | 0.00 | 0.00 | 82 | 1016.8 |
| 20260831075624 | 78 | 233 | 6.0 | 8.0 | 0.00 | 0.00 | 0.00 | 82 | 1016.5 |
| 20260831075119 | 78 | 183 | 6.0 | 8.0 | 0.00 | 0.00 | 0.00 | 81 | 1016.8 |
| 20260831074618 | 79 | 221 | 7.0 | 8.0 | 0.00 | 0.00 | 0.00 | 81 | 1016.8 |
| 20260831074113 | 79 | 205 | 8.0 | 9.0 | 0.00 | 0.00 | 0.00 | 80 | 1016.6 |
| 20260831073608 | 79 | 233 | 9.0 | 10.0 | 0.00 | 0.00 | 0.00 | 80 | 1016.7 |
| 20260831073107 | 79 | 201 | 7.0 | 8.0 | 0.00 | 0.00 | 0.00 | 79 | 1017.0 |
| 20260831072603 | 79 | 191 | 9.0 | 10.0 | 0.00 | 0.00 | 0.00 | 79 | 1016.7 |
| 20260831072059 | 79 | 195 | 9.0 | 10.0 | 0.00 | 0.00 | 0.00 | 79 | 1017.1 |
| 20260831071557 | 80 | 220 | 6.0 | 7.0 | 0.00 | 0.00 | 0.00 | 78 | 1017.0 |
| 20260831071053 | 80 | 251 | 6.0 | 7.0 | 0.00 | 0.00 | 0.00 | 78 | 1016.9 |
| 20260831070552 | 80 | 214 | 7.0 | 9.0 | 0.00 | 0.00 | 0.00 | 78 | 1017.0 |
| 20260831070047 | 80 | 199 | 9.0 | 10.0 | 0.00 | 0.00 | 0.00 | 78 | 1016.7 |
| 20260831065544 | 80 | 176 | 8.0 | 9.0 | 0.00 | 0.00 | 0.00 | 78 | 1017.0 |
| 20260831065039 | 80 | 228 | 7.0 | 8.0 | 0.00 | 0.00 | 0.00 | 78 | 1016.9 |
| 20260831064534 | 80 | 217 | 6.0 | 7.0 | 0.00 | 0.00 | 0.00 | 77 | 1017.0 |
| 20260831064030 | 81 | 195 | 8.0 | 10.0 | 0.00 | 0.00 | 0.00 | 77 | 1017.1 |
| 20260831063525 | 81 | 207 | 8.0 | 9.0 | 0.00 | 0.00 | 0.00 | 76 | 1017.1 |
| 20260831063020 | 81 | 184 | 7.0 | 8.0 | 0.00 | 0.00 | 0.00 | 76 | 1017.2 |
| 20260831062515 | 81 | 216 | 7.0 | 8.0 | 0.00 | 0.00 | 0.00 | 76 | 1017.1 |
| 20260831062014 | 81 | 210 | 6.0 | 7.0 | 0.00 | 0.00 | 0.00 | 76 | 1017.1 |
| 20260831061512 | 81 | 225 | 7.0 | 8.0 | 0.00 | 0.00 | 0.00 | 76 | 1016.9 |
| 20260831061009 | 82 | 191 | 6.0 | 7.0 | 0.00 | 0.00 | 0.00 | 75 | 1016.9 |
| 20260831060508 | 82 | 223 | 5.0 | 7.0 | 0.00 | 0.00 | 0.00 | 75 | 1016.7 |
| 20260831060003 | 82 | 240 | 3.0 | 5.0 | 0.00 | 0.00 | 0.00 | 74 | 1017.1 |
| 20260831055458 | 82 | 223 | 5.0 | 6.0 | 0.00 | 0.00 | 0.00 | 74 | 1016.9 |
| 20260831054954 | 82 | 245 | 5.0 | 7.0 | 0.00 | 0.00 | 0.00 | 74 | 1016.8 |
| 20260831054453 | 82 | 183 | 6.0 | 8.0 | 0.00 | 0.00 | 0.00 | 73 | 1016.7 |
| 20260831053953 | 82 | 187 | 5.0 | 7.0 | 0.00 | 0.00 | 0.00 | 72 | 1016.6 |
| 20260831053451 | 83 | 213 | 8.0 | 9.0 | 0.00 | 0.00 | 0.00 | 72 | 1016.7 |
| 20260831052946 | 83 | 201 | 7.0 | 8.0 | 0.00 | 0.00 | 0.00 | 71 | 1016.8 |
| 20260831052445 | 83 | 220 | 6.0 | 9.0 | 0.00 | 0.00 | 0.00 | 71 | 1016.7 |
| 20260831051944 | 83 | 223 | 6.0 | 8.0 | 0.00 | 0.00 | 0.00 | 71 | 1016.6 |
| 20260831051443 | 83 | 225 | 5.0 | 7.0 | 0.00 | 0.00 | 0.00 | 70 | 1016.6 |
| 20260831050937 | 84 | 223 | 5.0 | 6.0 | 0.00 | 0.00 | 0.00 | 70 | 1016.7 |
| 20260831050437 | 84 | 210 | 6.0 | 7.0 | 0.00 | 0.00 | 0.00 | 69 | 1016.5 |
| 20260831045936 | 84 | 197 | 9.0 | 13.0 | 0.00 | 0.00 | 0.00 | 69 | 1016.5 |
| 20260831045435 | 84 | 176 | 8.0 | 9.0 | 0.00 | 0.00 | 0.00 | 68 | 1016.3 |
| 20260831044930 | 84 | 196 | 6.0 | 10.0 | 0.00 | 0.00 | 0.00 | 68 | 1016.5 |
| 20260831044426 | 84 | 189 | 7.0 | 9.0 | 0.00 | 0.00 | 0.00 | 68 | 1016.4 |
| 20260831043921 | 84 | 242 | 5.0 | 8.0 | 0.00 | 0.00 | 0.00 | 67 | 1016.4 |
| 20260831043421 | 85 | 220 | 8.0 | 9.0 | 0.00 | 0.00 | 0.00 | 67 | 1016.5 |
| 20260831042916 | 85 | 245 | 6.0 | 9.0 | 0.00 | 0.00 | 0.00 | 66 | 1016.3 |
| 20260831042415 | 85 | 232 | 8.0 | 10.0 | 0.00 | 0.00 | 0.00 | 65 | 1016.6 |
| 20260831041905 | 85 | 216 | 9.0 | 11.0 | 0.00 | 0.00 | 0.00 | 65 | 1016.3 |
| 20260831041404 | 85 | 184 | 11.0 | 13.0 | 0.00 | 0.00 | 0.00 | 64 | 1016.4 |
| 20260831040859 | 86 | 184 | 14.0 | 17.0 | 0.00 | 0.00 | 0.00 | 64 | 1016.4 |
| 20260831040354 | 86 | 223 | 10.0 | 14.0 | 0.00 | 0.00 | 0.00 | 63 | 1016.1 |
| 20260831035852 | 86 | 185 | 8.0 | 11.0 | 0.00 | 0.00 | 0.00 | 63 | 1016.3 |
| 20260831035351 | 86 | 232 | 7.0 | 9.0 | 0.00 | 0.00 | 0.00 | 63 | 1016.3 |
| 20260831034846 | 86 | 167 | 5.0 | 7.0 | 0.00 | 0.00 | 0.00 | 62 | 1016.3 |
| 20260831034341 | 86 | 106 | 10.0 | 16.0 | 0.00 | 0.00 | 0.00 | 62 | 1016.1 |
| 20260831033836 | 86 | 194 | 5.0 | 7.0 | 0.00 | 0.00 | 0.00 | 62 | 1015.8 |
| 20260831033336 | 86 | 182 | 9.0 | 14.0 | 0.00 | 0.00 | 0.00 | 62 | 1015.8 |
| 20260831032832 | 87 | 208 | 8.0 | 11.0 | 0.00 | 0.00 | 0.00 | 62 | 1016.1 |
| 20260831032326 | 87 | 175 | 9.0 | 13.0 | 0.00 | 0.00 | 0.00 | 62 | 1015.8 |
| 20260831031821 | 87 | 174 | 5.0 | 7.0 | 0.00 | 0.00 | 0.00 | 62 | 1015.9 |
| 20260831031320 | 87 | 185 | 5.0 | 8.0 | 0.00 | 0.00 | 0.00 | 61 | 1015.6 |
| 20260831030816 | 87 | 186 | 9.0 | 13.0 | 0.00 | 0.00 | 0.00 | 61 | 1015.6 |
| 20260831030313 | 87 | 183 | 7.0 | 9.0 | 0.00 | 0.00 | 0.00 | 61 | 1015.6 |
| 20260831025808 | 87 | 231 | 6.0 | 8.0 | 0.00 | 0.00 | 0.00 | 61 | 1015.4 |
| 20260831025306 | 88 | 141 | 6.0 | 7.0 | 0.00 | 0.00 | 0.00 | 61 | 1015.4 |
| 20260831024758 | 88 | 166 | 9.0 | 14.0 | 0.00 | 0.00 | 0.00 | 60 | 1015.3 |
| 20260831024257 | 88 | 179 | 6.0 | 8.0 | 0.00 | 0.00 | 0.00 | 59 | 1015.3 |
| 20260831023756 | 88 | 147 | 12.0 | 15.0 | 0.00 | 0.00 | 0.00 | 59 | 1015.0 |
| 20260831023255 | 89 | 176 | 7.0 | 9.0 | 0.00 | 0.00 | 0.00 | 57 | 1015.2 |
| 20260831022750 | 89 | 175 | 11.0 | 17.0 | 0.00 | 0.00 | 0.00 | 56 | 1015.1 |
| 20260831022249 | 89 | 125 | 5.0 | 7.0 | 0.00 | 0.00 | 0.00 | 54 | 1015.0 |
| 20260831021744 | 90 | 175 | 9.0 | 14.0 | 0.00 | 0.00 | 0.00 | 51 | 1014.8 |
| 20260831021244 | 90 | 175 | 5.0 | 6.0 | 0.00 | 0.00 | 0.00 | 49 | 1014.8 |
| 20260831020741 | 90 | 127 | 4.0 | 6.0 | 0.00 | 0.00 | 0.00 | 48 | 1014.7 |
| 20260831020239 | 90 | 113 | 5.0 | 7.0 | 0.00 | 0.00 | 0.00 | 47 | 1014.3 |
| 20260831015735 | 90 | 125 | 6.0 | 8.0 | 0.00 | 0.00 | 0.00 | 47 | 1014.4 |
| 20260831015231 | 90 | 129 | 3.0 | 6.0 | 0.00 | 0.00 | 0.00 | 48 | 1014.7 |
| 20260831014725 | 91 | 117 | 7.0 | 9.0 | 0.00 | 0.00 | 0.00 | 47 | 1014.5 |
| 20260831014220 | 91 | 131 | 4.0 | 6.0 | 0.00 | 0.00 | 0.00 | 47 | 1014.4 |
| 20260831013716 | 91 | 121 | 3.0 | 5.0 | 0.00 | 0.00 | 0.00 | 48 | 1014.2 |
| 20260831013215 | 91 | 156 | 3.0 | 3.0 | 0.00 | 0.00 | 0.00 | 47 | 1014.2 |
| 20260831012711 | 91 | 124 | 7.0 | 9.0 | 0.00 | 0.00 | 0.00 | 46 | 1014.1 |
| 20260831012206 | 91 | 198 | 2.0 | 2.0 | 0.00 | 0.00 | 0.00 | 47 | 1014.0 |
| 20260831011705 | 91 | 142 | 3.0 | 3.0 | 0.00 | 0.00 | 0.00 | 46 | 1014.0 |
| 20260831011201 | 92 | 195 | 3.0 | 3.0 | 0.00 | 0.00 | 0.00 | 46 | 1014.2 |
| 20260831010657 | 92 | 141 | 3.0 | 3.0 | 0.00 | 0.00 | 0.00 | 46 | 1014.1 |
| 20260831010152 | 92 | 126 | 6.0 | 7.0 | 0.00 | 0.00 | 0.00 | 46 | 1014.1 |
| 20260831005651 | 92 | 127 | 7.0 | 8.0 | 0.00 | 0.00 | 0.00 | 45 | 1014.0 |
| 20260831005147 | 92 | 175 | 5.0 | 7.0 | 0.00 | 0.00 | 0.00 | 45 | 1014.0 |
| 20260831004643 | 93 | 162 | 5.0 | 7.0 | 0.00 | 0.00 | 0.00 | 45 | 1014.0 |
| 20260831004138 | 93 | 187 | 3.0 | 3.0 | 0.00 | 0.00 | 0.00 | 45 | 1014.2 |
| 20260831003634 | 93 | 127 | 3.0 | 5.0 | 0.00 | 0.00 | 0.00 | 44 | 1014.0 |
| 20260831003130 | 93 | 190 | 4.0 | 6.0 | 0.00 | 0.00 | 0.00 | 44 | 1014.0 |
| 20260831002628 | 94 | 194 | 5.0 | 6.0 | 0.00 | 0.00 | 0.00 | 44 | 1014.1 |
| 20260831002124 | 94 | 206 | 4.0 | 5.0 | 0.00 | 0.00 | 0.00 | 43 | 1014.0 |
| 20260831001619 | 94 | 295 | 2.0 | 3.0 | 0.00 | 0.00 | 0.00 | 43 | 1014.0 |
| 20260831001115 | 95 | 210 | 7.0 | 8.0 | 0.00 | 0.00 | 0.00 | 42 | 1013.9 |
| 20260831000612 | 95 | 216 | 4.0 | 6.0 | 0.00 | 0.00 | 0.00 | 42 | 1014.0 |
| 20260831000111 | 95 | 210 | 5.0 | 6.0 | 0.00 | 0.00 | 0.00 | 42 | 1014.0 |
| 20260830235610 | 95 | 264 | 3.0 | 3.0 | 0.00 | 0.00 | 0.00 | 42 | 1014.3 |
| 20260830235105 | 95 | 230 | 6.0 | 7.0 | 0.00 | 0.00 | 0.00 | 41 | 1013.9 |
| 20260830234600 | 95 | 300 | 1.0 | 1.0 | 0.00 | 0.00 | 0.00 | 41 | 1014.0 |
| 20260830234055 | 95 | 227 | 5.0 | 6.0 | 0.00 | 0.00 | 0.00 | 41 | 1013.9 |
| 20260830233550 | 95 | 209 | 5.0 | 5.0 | 0.00 | 0.00 | 0.00 | 40 | 1014.1 |
| 20260830233046 | 95 | 260 | 3.0 | 3.0 | 0.00 | 0.00 | 0.00 | 40 | 1014.1 |
| 20260830232542 | 94 | 239 | 7.0 | 9.0 | 0.00 | 0.00 | 0.00 | 40 | 1014.2 |
| 20260830232038 | 95 | 243 | 7.0 | 8.0 | 0.00 | 0.00 | 0.00 | 40 | 1014.1 |
| 20260830231534 | 95 | 162 | 9.0 | 11.0 | 0.00 | 0.00 | 0.00 | 40 | 1014.1 |
| 20260830231032 | 96 | 187 | 6.0 | 8.0 | 0.00 | 0.00 | 0.00 | 40 | 1014.0 |
| 20260830230528 | 96 | 260 | 3.0 | 5.0 | 0.00 | 0.00 | 0.00 | 40 | 1014.0 |
| 20260830230023 | 95 | 174 | 3.0 | 5.0 | 0.00 | 0.00 | 0.00 | 40 | 1014.1 |
| 20260830225518 | 95 | 226 | 6.0 | 8.0 | 0.00 | 0.00 | 0.00 | 42 | 1014.2 |
| 20260830225018 | 96 | 212 | 7.0 | 8.0 | 0.00 | 0.00 | 0.00 | 42 | 1014.2 |
| 20260830224516 | 95 | 239 | 4.0 | 5.0 | 0.00 | 0.00 | 0.00 | 41 | 1014.3 |
| 20260830224013 | 95 | 228 | 5.0 | 6.0 | 0.00 | 0.00 | 0.00 | 41 | 1014.3 |
| 20260830223509 | 95 | 244 | 4.0 | 6.0 | 0.00 | 0.00 | 0.00 | 42 | 1014.1 |
| 20260830223004 | 96 | 223 | 7.0 | 10.0 | 0.00 | 0.00 | 0.00 | 42 | 1014.3 |
| 20260830222458 | 95 | 188 | 8.0 | 10.0 | 0.00 | 0.00 | 0.00 | 42 | 1014.3 |
| 20260830221954 | 95 | 219 | 7.0 | 9.0 | 0.00 | 0.00 | 0.00 | 42 | 1014.3 |
| 20260830221449 | 96 | 232 | 4.0 | 5.0 | 0.00 | 0.00 | 0.00 | 41 | 1014.5 |
| 20260830220940 | 95 | 232 | 6.0 | 7.0 | 0.00 | 0.00 | 0.00 | 42 | 1014.3 |
| 20260830220440 | 95 | 280 | 6.0 | 8.0 | 0.00 | 0.00 | 0.00 | 42 | 1014.3 |
| 20260830215937 | 96 | 237 | 4.0 | 6.0 | 0.00 | 0.00 | 0.00 | 42 | 1014.3 |
| 20260830215432 | 95 | 191 | 5.0 | 7.0 | 0.00 | 0.00 | 0.00 | 43 | 1014.2 |
| 20260830214926 | 95 | 184 | 7.0 | 9.0 | 0.00 | 0.00 | 0.00 | 43 | 1014.5 |
| 20260830214417 | 95 | 187 | 4.0 | 5.0 | 0.00 | 0.00 | 0.00 | 44 | 1014.4 |
| 20260830213916 | 94 | 197 | 7.0 | 9.0 | 0.00 | 0.00 | 0.00 | 44 | 1014.5 |
| 20260830213412 | 95 | 162 | 9.0 | 13.0 | 0.00 | 0.00 | 0.00 | 44 | 1014.8 |
| 20260830212907 | 95 | 196 | 8.0 | 10.0 | 0.00 | 0.00 | 0.00 | 43 | 1014.7 |
| 20260830212403 | 95 | 183 | 7.0 | 9.0 | 0.00 | 0.00 | 0.00 | 44 | 1014.9 |
| 20260830211902 | 96 | 108 | 3.0 | 3.0 | 0.00 | 0.00 | 0.00 | 44 | 1015.0 |
| 20260830211356 | 96 | 192 | 7.0 | 10.0 | 0.00 | 0.00 | 0.00 | 42 | 1015.0 |
| 20260830210852 | 95 | 132 | 5.0 | 6.0 | 0.00 | 0.00 | 0.00 | 46 | 1015.2 |
| 20260830210351 | 95 | 187 | 7.0 | 9.0 | 0.00 | 0.00 | 0.00 | 45 | 1015.1 |
| 20260830205849 | 95 | 166 | 7.0 | 8.0 | 0.00 | 0.00 | 0.00 | 44 | 1015.1 |
| 20260830205348 | 96 | 191 | 5.0 | 7.0 | 0.00 | 0.00 | 0.00 | 43 | 1015.2 |
| 20260830204844 | 94 | 288 | 1.0 | 1.0 | 0.00 | 0.00 | 0.00 | 45 | 1015.1 |
| 20260830204343 | 95 | 165 | 6.0 | 9.0 | 0.00 | 0.00 | 0.00 | 44 | 1015.4 |
| 20260830203838 | 94 | 198 | 5.0 | 6.0 | 0.00 | 0.00 | 0.00 | 45 | 1015.5 |
| 20260830203335 | 93 | 232 | 9.0 | 11.0 | 0.00 | 0.00 | 0.00 | 47 | 1015.7 |
| 20260830202833 | 94 | 166 | 7.0 | 8.0 | 0.00 | 0.00 | 0.00 | 46 | 1015.7 |
| 20260830202329 | 94 | 220 | 7.0 | 8.0 | 0.00 | 0.00 | 0.00 | 48 | 1015.7 |
| 20260830201825 | 93 | 147 | 5.0 | 6.0 | 0.00 | 0.00 | 0.00 | 49 | 1015.5 |
| 20260830201319 | 94 | 142 | 7.0 | 9.0 | 0.00 | 0.00 | 0.00 | 48 | 1015.8 |
| 20260830200814 | 93 | 151 | 7.0 | 10.0 | 0.00 | 0.00 | 0.00 | 50 | 1015.8 |
| 20260830200313 | 93 | 209 | 3.0 | 5.0 | 0.00 | 0.00 | 0.00 | 50 | 1015.8 |
| 20260830195809 | 93 | 190 | 11.0 | 14.0 | 0.00 | 0.00 | 0.00 | 49 | 1016.1 |
| 20260830195309 | 95 | 139 | 6.0 | 7.0 | 0.00 | 0.00 | 0.00 | 49 | 1016.1 |
| 20260830194807 | 94 | 134 | 7.0 | 8.0 | 0.00 | 0.00 | 0.00 | 51 | 1016.3 |
| 20260830194307 | 92 | 217 | 7.0 | 8.0 | 0.00 | 0.00 | 0.00 | 52 | 1016.2 |
| 20260830193802 | 93 | 226 | 4.0 | 6.0 | 0.00 | 0.00 | 0.00 | 51 | 1016.2 |
| 20260830193301 | 94 | 139 | 6.0 | 11.0 | 0.00 | 0.00 | 0.00 | 50 | 1016.3 |
| 20260830192758 | 94 | 165 | 4.0 | 5.0 | 0.00 | 0.00 | 0.00 | 50 | 1016.6 |
| 20260830192252 | 93 | 206 | 6.0 | 7.0 | 0.00 | 0.00 | 0.00 | 50 | 1016.4 |
| 20260830191748 | 92 | 198 | 10.0 | 14.0 | 0.00 | 0.00 | 0.00 | 52 | 1016.7 |
| 20260830191247 | 93 | 218 | 5.0 | 7.0 | 0.00 | 0.00 | 0.00 | 51 | 1016.9 |
| 20260830190743 | 93 | 150 | 8.0 | 10.0 | 0.00 | 0.00 | 0.00 | 50 | 1017.0 |
| 20260830190238 | 93 | 199 | 7.0 | 8.0 | 0.00 | 0.00 | 0.00 | 51 | 1016.8 |
| 20260830185736 | 91 | 254 | 1.0 | 2.0 | 0.00 | 0.00 | 0.00 | 53 | 1017.0 |
| 20260830185232 | 92 | 217 | 7.0 | 9.0 | 0.00 | 0.00 | 0.00 | 52 | 1017.1 |
| 20260830184732 | 91 | 199 | 7.0 | 10.0 | 0.00 | 0.00 | 0.00 | 54 | 1017.1 |
| 20260830184231 | 91 | 260 | 3.0 | 5.0 | 0.00 | 0.00 | 0.00 | 55 | 1017.0 |
| 20260830183726 | 92 | 179 | 2.0 | 5.0 | 0.00 | 0.00 | 0.00 | 55 | 1017.2 |
| 20260830183221 | 91 | 235 | 7.0 | 11.0 | 0.00 | 0.00 | 0.00 | 55 | 1017.3 |
| 20260830182716 | 91 | 217 | 3.0 | 3.0 | 0.00 | 0.00 | 0.00 | 55 | 1017.4 |
| 20260830182212 | 91 | 169 | 5.0 | 5.0 | 0.00 | 0.00 | 0.00 | 55 | 1017.8 |
| 20260830181708 | 90 | 185 | 6.0 | 7.0 | 0.00 | 0.00 | 0.00 | 58 | 1017.6 |
| 20260830181203 | 90 | 185 | 6.0 | 9.0 | 0.00 | 0.00 | 0.00 | 57 | 1017.4 |
| 20260830180701 | 89 | 213 | 5.0 | 7.0 | 0.00 | 0.00 | 0.00 | 61 | 1017.8 |
| 20260830180156 | 89 | 240 | 4.0 | 5.0 | 0.00 | 0.00 | 0.00 | 61 | 1017.8 |
| 20260830175656 | 89 | 229 | 5.0 | 7.0 | 0.00 | 0.00 | 0.00 | 58 | 1018.1 |
| 20260830175151 | 91 | 190 | 4.0 | 5.0 | 0.00 | 0.00 | 0.00 | 58 | 1017.9 |
| 20260830174646 | 89 | 204 | 6.0 | 7.0 | 0.00 | 0.00 | 0.00 | 60 | 1018.2 |
| 20260830174142 | 89 | 196 | 5.0 | 6.0 | 0.00 | 0.00 | 0.00 | 60 | 1018.0 |
| 20260830173636 | 87 | 243 | 2.0 | 2.0 | 0.00 | 0.00 | 0.00 | 61 | 1018.3 |
| 20260830173131 | 89 | 198 | 9.0 | 10.0 | 0.00 | 0.00 | 0.00 | 61 | 1018.5 |
| 20260830172628 | 88 | 203 | 5.0 | 6.0 | 0.00 | 0.00 | 0.00 | 61 | 1018.4 |
| 20260830172125 | 87 | 256 | 4.0 | 6.0 | 0.00 | 0.00 | 0.00 | 63 | 1018.5 |
| 20260830171624 | 88 | 253 | 4.0 | 6.0 | 0.00 | 0.00 | 0.00 | 61 | 1018.5 |
| 20260830171120 | 87 | 275 | 3.0 | 3.0 | 0.00 | 0.00 | 0.00 | 63 | 1018.8 |
| 20260830170614 | 87 | 290 | 1.0 | 2.0 | 0.00 | 0.00 | 0.00 | 65 | 1018.6 |
| 20260830170113 | 87 | 213 | 3.0 | 5.0 | 0.00 | 0.00 | 0.00 | 66 | 1018.7 |
| 20260830165608 | 87 | 193 | 4.0 | 7.0 | 0.00 | 0.00 | 0.00 | 64 | 1018.6 |
| 20260830165104 | 86 | 241 | 4.0 | 6.0 | 0.00 | 0.00 | 0.00 | 65 | 1018.9 |
| 20260830164600 | 87 | 214 | 11.0 | 13.0 | 0.00 | 0.00 | 0.00 | 64 | 1018.8 |
| 20260830164055 | 86 | 183 | 6.0 | 7.0 | 0.00 | 0.00 | 0.00 | 66 | 1018.8 |
| 20260830163553 | 85 | 196 | 9.0 | 11.0 | 0.00 | 0.00 | 0.00 | 66 | 1018.9 |
| 20260830163052 | 86 | 255 | 2.0 | 2.0 | 0.00 | 0.00 | 0.00 | 69 | 1018.8 |
| 20260830162547 | 86 | 228 | 2.0 | 2.0 | 0.00 | 0.00 | 0.00 | 68 | 1018.8 |
| 20260830162043 | 86 | 271 | 4.0 | 5.0 | 0.00 | 0.00 | 0.00 | 67 | 1018.6 |
| 20260830161542 | 86 | 257 | 5.0 | 6.0 | 0.00 | 0.00 | 0.00 | 69 | 1018.8 |
| 20260830161037 | 85 | 233 | 6.0 | 7.0 | 0.00 | 0.00 | 0.00 | 69 | 1018.9 |
| 20260830160534 | 84 | 253 | 4.0 | 5.0 | 0.00 | 0.00 | 0.00 | 70 | 1018.8 |
| 20260830160029 | 84 | 232 | 6.0 | 7.0 | 0.00 | 0.00 | 0.00 | 73 | 1018.9 |
| 20260830155525 | 84 | 200 | 9.0 | 11.0 | 0.00 | 0.00 | 0.00 | 72 | 1018.8 |
| 20260830155020 | 84 | 216 | 8.0 | 9.0 | 0.00 | 0.00 | 0.00 | 72 | 1018.8 |
| 20260830154515 | 83 | 231 | 6.0 | 10.0 | 0.00 | 0.00 | 0.00 | 75 | 1018.7 |
| 20260830154012 | 84 | 219 | 8.0 | 10.0 | 0.00 | 0.00 | 0.00 | 74 | 1018.6 |
| 20260830153508 | 83 | 264 | 3.0 | 5.0 | 0.00 | 0.00 | 0.00 | 75 | 1018.9 |
| 20260830153007 | 83 | 179 | 11.0 | 13.0 | 0.00 | 0.00 | 0.00 | 74 | 1018.7 |
| 20260830152502 | 82 | 184 | 6.0 | 7.0 | 0.00 | 0.00 | 0.00 | 77 | 1018.6 |
| 20260830152000 | 82 | 276 | 2.0 | 2.0 | 0.00 | 0.00 | 0.00 | 78 | 1018.8 |
| 20260830151455 | 82 | 218 | 6.0 | 8.0 | 0.00 | 0.00 | 0.00 | 77 | 1018.6 |
| 20260830150950 | 81 | 228 | 8.0 | 10.0 | 0.00 | 0.00 | 0.00 | 78 | 1018.5 |
| 20260830150449 | 81 | 190 | 12.0 | 13.0 | 0.00 | 0.00 | 0.00 | 79 | 1018.4 |
| 20260830145944 | 80 | 233 | 8.0 | 10.0 | 0.00 | 0.00 | 0.00 | 80 | 1018.5 |
| 20260830145438 | 80 | 217 | 8.0 | 9.0 | 0.00 | 0.00 | 0.00 | 80 | 1018.5 |
| 20260830144934 | 80 | 221 | 7.0 | 9.0 | 0.00 | 0.00 | 0.00 | 81 | 1018.4 |
| 20260830144430 | 80 | 213 | 10.0 | 11.0 | 0.00 | 0.00 | 0.00 | 81 | 1018.4 |
| 20260830143925 | 80 | 184 | 9.0 | 10.0 | 0.00 | 0.00 | 0.00 | 82 | 1018.4 |
| 20260830143420 | 80 | 204 | 8.0 | 9.0 | 0.00 | 0.00 | 0.00 | 82 | 1018.6 |
| 20260830142919 | 79 | 226 | 9.0 | 10.0 | 0.00 | 0.00 | 0.00 | 83 | 1018.5 |
| 20260830142414 | 79 | 215 | 7.0 | 9.0 | 0.00 | 0.00 | 0.00 | 83 | 1018.5 |
| 20260830141908 | 78 | 222 | 8.0 | 10.0 | 0.00 | 0.00 | 0.00 | 85 | 1018.5 |
| 20260830141404 | 79 | 215 | 7.0 | 8.0 | 0.00 | 0.00 | 0.00 | 84 | 1018.5 |
| 20260830140900 | 78 | 223 | 7.0 | 8.0 | 0.00 | 0.00 | 0.00 | 86 | 1018.4 |
| 20260830140400 | 78 | 231 | 7.0 | 8.0 | 0.00 | 0.00 | 0.00 | 86 | 1018.2 |
| 20260830135858 | 78 | 221 | 6.0 | 8.0 | 0.00 | 0.00 | 0.00 | 87 | 1018.3 |
| 20260830135354 | 77 | 221 | 7.0 | 7.0 | 0.00 | 0.00 | 0.00 | 87 | 1018.4 |
| 20260830134850 | 77 | 233 | 6.0 | 8.0 | 0.00 | 0.00 | 0.00 | 87 | 1018.5 |
| 20260830134346 | 77 | 240 | 4.0 | 6.0 | 0.00 | 0.00 | 0.00 | 88 | 1018.2 |
| 20260830133841 | 77 | 216 | 5.0 | 7.0 | 0.00 | 0.00 | 0.00 | 88 | 1018.4 |
| 20260830133337 | 76 | 190 | 4.0 | 5.0 | 0.00 | 0.00 | 0.00 | 89 | 1018.3 |
| 20260830132832 | 76 | 210 | 5.0 | 6.0 | 0.00 | 0.00 | 0.00 | 89 | 1018.2 |
| 20260830132328 | 76 | 199 | 5.0 | 6.0 | 0.00 | 0.00 | 0.00 | 89 | 1018.2 |
| 20260830131827 | 76 | 223 | 3.0 | 3.0 | 0.00 | 0.00 | 0.00 | 90 | 1018.1 |
| 20260830131321 | 75 | 198 | 5.0 | 6.0 | 0.00 | 0.00 | 0.00 | 90 | 1018.1 |
| 20260830130816 | 75 | 203 | 4.0 | 6.0 | 0.00 | 0.00 | 0.00 | 90 | 1018.1 |
| 20260830130312 | 75 | 230 | 5.0 | 6.0 | 0.00 | 0.00 | 0.00 | 91 | 1018.1 |
| 20260830125810 | 75 | 223 | 4.0 | 5.0 | 0.00 | 0.00 | 0.00 | 91 | 1017.9 |
| 20260830125307 | 75 | 280 | 2.0 | 3.0 | 0.00 | 0.00 | 0.00 | 91 | 1018.1 |
| 20260830124803 | 74 | 189 | 4.0 | 5.0 | 0.00 | 0.00 | 0.00 | 91 | 1017.8 |
| 20260830124258 | 74 | 290 | 3.0 | 3.0 | 0.00 | 0.00 | 0.00 | 91 | 1017.9 |
| 20260830123755 | 74 | 214 | 5.0 | 6.0 | 0.00 | 0.00 | 0.00 | 91 | 1017.6 |
| 20260830123251 | 74 | 220 | 5.0 | 6.0 | 0.00 | 0.00 | 0.00 | 91 | 1017.8 |
| 20260830122749 | 74 | 180 | 5.0 | 7.0 | 0.00 | 0.00 | 0.00 | 91 | 1017.6 |
| 20260830122244 | 74 | 219 | 5.0 | 5.0 | 0.00 | 0.00 | 0.00 | 91 | 1017.6 |
| 20260830121739 | 74 | 227 | 5.0 | 6.0 | 0.00 | 0.00 | 0.00 | 91 | 1017.4 |
| 20260830121238 | 74 | 269 | 4.0 | 5.0 | 0.00 | 0.00 | 0.00 | 91 | 1017.5 |
| 20260830120733 | 74 | 230 | 7.0 | 8.0 | 0.00 | 0.00 | 0.00 | 91 | 1017.4 |
| 20260830120230 | 74 | 223 | 5.0 | 7.0 | 0.00 | 0.00 | 0.00 | 91 | 1017.4 |
| 20260830115726 | 74 | 235 | 4.0 | 5.0 | 0.00 | 0.00 | 0.00 | 90 | 1017.5 |
| 20260830115221 | 74 | 253 | 4.0 | 5.0 | 0.00 | 0.00 | 0.00 | 90 | 1017.3 |
| 20260830114718 | 74 | 213 | 5.0 | 6.0 | 0.00 | 0.00 | 0.00 | 90 | 1017.5 |
| 20260830114217 | 74 | 238 | 4.0 | 6.0 | 0.00 | 0.00 | 0.00 | 89 | 1017.4 |
| 20260830113713 | 75 | 242 | 4.0 | 5.0 | 0.00 | 0.00 | 0.00 | 89 | 1017.4 |
| 20260830113208 | 75 | 220 | 5.0 | 6.0 | 0.00 | 0.00 | 0.00 | 89 | 1017.3 |
| 20260830112704 | 75 | 232 | 5.0 | 6.0 | 0.00 | 0.00 | 0.00 | 88 | 1017.2 |
| 20260830112200 | 75 | 231 | 5.0 | 6.0 | 0.00 | 0.00 | 0.00 | 88 | 1017.4 |
| 20260830111655 | 75 | 214 | 5.0 | 6.0 | 0.00 | 0.00 | 0.00 | 88 | 1017.3 |
| 20260830111151 | 75 | 216 | 5.0 | 6.0 | 0.00 | 0.00 | 0.00 | 88 | 1017.1 |
| 20260830110645 | 75 | 238 | 5.0 | 6.0 | 0.00 | 0.00 | 0.00 | 87 | 1017.0 |
| 20260830110141 | 75 | 212 | 5.0 | 5.0 | 0.00 | 0.00 | 0.00 | 87 | 1017.0 |
| 20260830105635 | 75 | 223 | 6.0 | 8.0 | 0.00 | 0.00 | 0.00 | 87 | 1017.1 |
| 20260830105131 | 75 | 221 | 5.0 | 6.0 | 0.00 | 0.00 | 0.00 | 87 | 1017.1 |
| 20260830104628 | 75 | 227 | 5.0 | 6.0 | 0.00 | 0.00 | 0.00 | 86 | 1017.1 |
| 20260830104125 | 75 | 188 | 5.0 | 6.0 | 0.00 | 0.00 | 0.00 | 86 | 1017.1 |
| 20260830103623 | 75 | 229 | 5.0 | 7.0 | 0.00 | 0.00 | 0.00 | 86 | 1017.0 |
| 20260830103118 | 75 | 221 | 5.0 | 7.0 | 0.00 | 0.00 | 0.00 | 86 | 1016.9 |
| 20260830102617 | 76 | 240 | 6.0 | 7.0 | 0.00 | 0.00 | 0.00 | 86 | 1016.8 |
| 20260830102114 | 76 | 208 | 5.0 | 7.0 | 0.00 | 0.00 | 0.00 | 85 | 1016.9 |